Location: Fairhaven
(34.9340°N, 89.7987°W)
Time: 23:49:58
(UTC+00:00)

ISS - Pass Details

Date: 13 February 2026
Orbit: 416 x 427 km, 51.6° (Epoch: 7 March)

Event Time Altitude Azimuth Distance (km) Brightness Sun altitude
Exits shadow 12:12:57 - 262° (W) 1,573 -1.4 -7.6°
Reaches altitude 10° 12:13:11 10° 264° (W) 1,488 -1.6 -7.6°
Maximum altitude 12:16:06 27° 325° (NW) 828 -2.6 -7.0°
Drops below altitude 10° 12:19:01 10° 26° (NNE) 1,491 -0.8 -6.4°
Sets 12:21:19 0° 39° (NE) 2,355 0.4 -5.9°
